SCP
0 -0 -0 -0 -0 -0 0 0 0 -0 -0 -0 -0 -0 -0 -0 -0 -0 -0 -0 0 0 0 0 0 0 0 0 0 0 0 0 0 0 0 -0 0 0 -0 0 0 -0 -0
-0 -0 -0 -0 -0 -0 -0 -0 -0 -0 -0 -0 -0 -0 -0 -0 -0 -0 -0 -0 -0 -0 -0 -0 -0 -0 0 0 0 0 0 0 0 0 0 0 0 0 0 0 0 0 0
-0 0 -0 -0 -0 -0 -0 -0 -0 -0 -0 -0 -0 -0 -0 -0 -0 -0 -0 -0 -0 -0 -0 -0 -0 -0 0 0 0 0 0 0 0 0 0 0 0 0 0 0 0 0 0
0 0 0 -0 -0 -0 -0 -0 -0 -0 -0 -0 -0 -0 -0 -0 -0 -0 -0 -0 -0 -0 -0 -0 -0 -0 -0 -0 -0 -0 0 0 -0 0 0 0 0 0 0 0 0 0 0
0 0 0 -0 -0 -0 -0 -0 -0 -0 -0 -0 -0 -0 -0 -0 -0 -0 -0 -0 -0 -0 -0 -0 -0 -0 -0 -0 -0 -0 -0 -0 -0 0 0 0 0 0 0 0 0 0 0
0 0 0 -0 -0 -0 -0 -0 -0 -0 -0 -0 -0 -0 -0 -0 -0 -0 -0 -0 0 0 0 0 0 0 0 0 0 -0 -0 -0 -0 0 0 0 0 -0 0 0 0 0 0
0 0 0 0 -0 -0 -0 -0 -0 -0 -0 -0 -0 -0 -0 0 0 0 0 0 0 0 0 0 0 0 0 0 0 0 -0 0 0 0 0 0 0 -0 0 0 0 0 0
0 0 0 0 0 -0 -0 0 0 0 0 -0 -0 -0 0 0 0 0 0 0 0 0 0 0 0 0 0 0 0 0 -0 -0 0 0 0 0 -0 -0 -0 -0 0 0 0
0 0 0 0 0 0 0 0 0 0 0 0 0 0 0 0 0 0 0 0 0 0 0 0 0 0 0 0 0 0 0 0 0 0 0 0 0 0 0 0 0 0 0
0 0 0 0 0 0 0 0 0 0 0 0 0 0 0 0 0 0 0 0 0 0 0 0 0 0 0 0 0 0 0 0 0 0 0 0 0 0 0 0 0 0 0
0 0 0 0 0 0 0 0 0 0 0 0 0 0 0 0 0 0 0 0 0 0 0 0 0 0 0 0 0 0 0 0 0 0 0 0 0 0 0 0 0 0 0
0 0 0 0 0 0 0 0 0 0 0 0 0 0 0 0 0 0 0 0 0 0 0 0 0 0 0 0 0 0 0 0 0 0 0 0 0 0 0 0 0 0 0
0 0 0 0 0 0 0 0 0 0 0 0 0 0 0 0 0 0 0 0 0 0 0 0 0 0 0 0 0 0 0 0 0 0 0 0 0 0 0 0 0 0 0
0 0 0 0 0 0 0 0 0 0 0 0 0 0 0 0 0 0 0 0 0 0 0 0 0 0 0 0 0 0 0 0 0 0 0 0 0 0 0 0 0 0 0
0 0 0 0 0 0 0 0 0 0 0 0 0 0 0 0 0 0 0 0 0 0 0 0 0 0 0 0 0 0 0 0 0 0 0 0 0 0 0 0 0 0 0
0 0 0 0 0 0 0 0 0 0 0 0 0 0 0 0 0 0 0 0 0 0 0 0 0 0 0 0 0 0 0 0 0 0 0 0 0 0 0 0 0 0 0
0 0 0 0 0 0 0 0 0 0 0 0 0 0 0 0 0 0 0 0 0 0 0 0 0 0 0 0 0 0 0 0 0 0 0 0 0 0 0 0 0 0 0
0 0 0 0 0 0 0 0 0 0 0 0 0 0 0 0 0 0 0 0 0 0 0 0 0 0 0 0 0 0 0 0 0 0 0 0 0 0 0 0 0 0 0
0 0 0 0 0 0 0 0 0 0 0 0 0 0 0 0 0 0 0 0 0 0 0 0 0 0 0 0 0 0 0 0 0 0 0 0 0 0 0 0 0 0 0
0 0 0 0 0 0 0 0 0 0 0 0 0 0 0 0 0 0 0 0 0 0 0 0 0 0 0 0 0 0 0 0 0 0 0 0 0 0 0 0 0 0 0
0 0 0 0 0 0 0 0 0 0 0 0 0 0 0 0 0 0 0 0 0 0 0 0 0 0 0 0 0 0 0 0 0 0 0 0 0 0 0 0 0 0 0
0 0 0 0 0 0 0 0 0 0 0 0 0 0 0 0 0 0 0 0 0 0 0 0 0 0 0 0 0 -0 0 0 0 0 0 0 0 0 0 0 0 0 0
0 0 0 0 0 0 0 0 0 0 0 0 0 0 0 0 0 0 0 0 0 0 0 0 0 0 0 0 0 0 0 0 0 0 0 0 0 0 0 0 0 0 0
0 0 0 0 0 0 0 0 0 0 0 0 0 0 0 0 0 0 0 0 0 0 0 0 0 0 0 0 0 0 0 0 0 0 0 0 0 0 0 0 0 0 0
0 0 0 0 0 0 0 0 0 0 0 0 0 0 0 0 0 0 0 0 0 0 0 0 0 0 0 0 0 0 0 0 0 0 0 0 0 0 0 0 0 0 0
0 0 0 0 0 0 0 0 0 0 0 0 0 0 0 0 0 0 0 0 0 0 0 0 0 0 0 0 0 0 0 0 0 0 0 0 0 0 0 0 -0 -0 -0
Wind_Speed_500mb
42 33 31 27 28 29 29 25 21 16 13 12 11 9 8 6 3 3 4 4 5 9 7 5 2 0 3 4 4 5 6 7 8 8 8 8 7 9 9 10 11 9 9
32 36 32 28 28 27 26 26 22 20 17 14 12 13 13 10 8 6 5 3 3 5 5 5 6 3 3 5 7 7 8 9 8 7 5 3 2 7 9 9 11 9 7
34 35 33 28 27 28 27 24 23 23 21 20 19 16 12 10 11 10 10 9 11 9 8 11 6 6 6 8 8 9 9 9 10 9 8 5 4 2 2 3 9 7 9
36 37 32 30 30 29 26 23 24 24 24 24 23 18 16 16 16 16 14 13 13 12 14 16 13 11 12 13 13 12 12 11 9 8 7 9 8 8 11 12 13 14 11
37 38 34 32 31 30 27 27 26 26 26 24 18 17 16 15 15 14 14 15 16 17 19 20 19 19 20 20 19 18 17 16 14 12 9 9 9 10 15 18 19 17 17
41 42 37 36 33 31 30 29 26 25 21 17 16 14 13 12 12 12 12 13 13 16 17 18 19 19 19 20 23 24 24 24 22 19 15 13 13 13 12 15 16 16 17
44 46 42 39 36 34 32 29 25 23 18 17 14 11 10 9 9 9 10 10 12 13 14 14 14 14 16 16 19 21 23 24 26 26 24 22 22 18 18 17 20 19 17
41 44 44 42 39 38 36 31 26 22 20 17 14 10 6 3 3 3 3 3 3 3 4 5 6 8 9 11 13 14 15 15 19 24 26 29 28 25 23 16 20 22 22
45 47 45 44 42 41 38 33 30 27 25 23 20 16 10 6 5 3 2 1 2 3 5 7 9 10 12 12 12 14 14 14 14 13 18 25 28 30 29 28 24 19 21
47 50 50 48 47 47 44 38 32 29 28 27 22 17 13 10 8 7 5 3 3 5 8 11 13 15 17 17 18 18 17 16 15 13 14 18 23 29 31 33 35 31 28
52 55 56 54 54 53 49 42 37 34 32 29 24 18 14 11 11 10 8 7 8 8 10 11 15 16 20 22 22 22 22 21 20 19 18 18 19 23 30 36 38 42 45
56 58 61 61 59 59 55 49 44 43 39 35 30 24 20 16 13 13 12 13 12 12 14 15 18 21 22 24 27 27 27 26 24 22 23 23 24 24 25 26 29 31 35
55 60 61 63 64 63 59 53 51 48 46 42 37 31 25 20 19 18 18 19 19 18 16 18 22 24 27 28 30 30 29 27 25 22 24 24 23 24 25 27 27 26 24
63 63 62 64 67 67 62 59 55 54 51 47 41 36 29 26 24 23 24 24 23 23 24 23 24 26 29 32 32 32 31 29 26 24 24 26 26 25 27 28 30 30 30
70 68 67 68 70 69 69 65 63 60 56 49 45 39 37 33 30 30 28 27 27 25 25 24 26 29 32 32 33 30 27 27 26 26 24 26 27 26 27 27 30 31 32
75 74 71 73 73 71 73 70 69 64 58 55 49 44 41 40 38 35 33 32 29 26 26 27 29 31 34 34 33 32 29 25 25 26 25 23 26 28 28 25 28 29 30
75 77 78 77 77 76 75 74 72 68 66 61 56 52 49 47 45 42 36 34 32 31 30 31 32 35 36 36 35 32 29 28 26 24 19 16 17 19 24 24 22 20 21
78 78 77 80 81 81 79 76 76 74 71 65 62 58 55 53 50 46 41 38 35 33 32 33 33 36 36 37 35 32 31 28 25 20 19 11 2 3 6 10 9 16 19
77 78 80 82 84 83 80 75 75 75 75 69 65 63 60 58 55 51 45 41 38 37 38 36 36 37 37 37 36 34 32 28 21 19 8 2 16 18 15 14 15 20 17
79 85 83 84 83 84 79 75 75 76 76 73 72 69 66 62 59 55 50 46 42 40 37 35 35 36 37 39 39 40 38 28 20 7 9 28 28 19 19 20 25 21 21
76 90 92 91 86 87 88 85 84 84 83 82 78 73 70 66 62 58 56 51 45 41 36 32 32 33 35 38 42 41 35 20 8 5 37 15 25 26 13 20 26 33 38
65 78 91 95 91 88 90 87 86 84 84 82 78 77 74 70 66 63 61 56 49 44 37 32 31 34 35 34 34 40 23 22 15 44 10 27 9 26 28 33 34 40 45
68 74 85 93 92 88 87 88 89 85 83 84 85 85 82 75 71 68 65 60 54 49 40 33 31 34 33 31 29 21 12 11 54 17 39 27 47 42 39 49 46 43 41
63 67 80 91 89 86 87 88 94 92 91 93 93 90 85 79 76 73 69 65 59 52 43 35 32 36 36 32 30 28 26 29 23 35 44 58 49 57 54 53 48 55 51
57 65 73 85 85 86 86 85 89 92 89 88 89 88 85 82 80 76 72 68 64 58 50 41 34 36 38 35 33 31 31 31 30 27 66 76 68 63 63 66 68 60 56
57 64 73 81 83 83 83 88 90 90 90 93 93 88 86 86 84 80 76 73 68 63 54 44 37 36 38 35 34 35 36 34 33 32 44 61 70 75 72 73 72 70 65
Wind_Direction_500mb
197 206 205 195 197 199 199 204 205 212 214 214 215 225 244 270 278 297 323 350 54 62 46 50 90 211 331 325 338 342 352 6 20 28 30 39 23 18 27 15 20 24 33
198 198 203 198 198 194 194 204 208 206 204 212 224 230 227 228 237 210 204 199 211 133 161 234 270 296 316 326 312 315 318 324 345 7 21 48 22 46 36 346 4 358 3
191 197 198 196 196 198 199 196 201 204 205 208 211 211 221 220 220 235 232 223 235 243 252 271 290 294 282 286 291 301 310 315 321 329 333 321 312 68 109 331 345 338 320
196 194 195 194 197 199 201 201 203 208 211 213 214 211 222 237 243 238 237 240 236 240 248 257 265 267 264 261 265 267 269 273 275 280 283 288 305 310 300 282 299 302 308
195 195 195 197 199 199 199 204 205 208 214 218 228 220 225 230 235 242 242 240 245 252 260 268 267 262 262 263 263 262 263 264 265 265 265 272 276 268 280 297 305 311 306
194 194 195 198 200 201 205 206 201 205 210 209 209 212 222 229 236 245 252 261 266 267 268 271 272 271 266 265 268 268 266 263 261 259 258 255 257 259 277 293 294 305 301
198 196 196 199 201 205 204 200 202 208 206 212 215 214 217 221 232 238 245 253 255 260 268 274 281 283 283 279 269 267 266 269 267 261 257 250 246 249 260 282 293 291 288
210 204 203 203 204 204 202 202 204 206 204 198 195 190 190 198 222 228 217 206 209 230 256 287 298 306 306 309 311 307 302 288 270 264 257 252 252 249 252 269 280 289 284
210 213 213 211 210 206 205 204 203 201 199 192 182 184 193 212 234 236 231 244 323 340 334 325 323 322 319 320 318 315 313 309 298 282 262 252 246 243 241 242 241 255 275
216 217 218 217 214 213 213 212 210 207 202 194 191 192 200 207 217 221 225 234 283 313 318 318 319 318 316 314 310 303 299 301 297 289 275 267 257 247 241 240 245 252 259
220 221 221 220 217 215 217 216 212 211 208 204 201 204 208 208 207 212 226 239 269 288 296 311 317 319 317 317 315 310 305 300 294 292 287 279 269 259 256 250 248 257 266
225 224 223 223 221 220 219 218 216 214 211 209 208 209 209 222 233 244 250 260 264 268 288 302 304 308 314 314 310 305 299 295 290 283 279 274 273 270 266 261 261 259 260
236 231 230 227 225 224 224 220 219 217 214 212 212 216 221 227 236 247 258 264 270 280 283 287 295 304 307 309 309 306 302 298 296 293 286 280 276 276 276 275 274 274 269
242 239 236 232 229 227 224 225 224 221 218 217 217 220 225 233 240 244 248 255 261 266 276 286 293 298 304 311 310 308 306 302 298 290 286 285 282 282 279 277 277 275 274
243 242 240 235 233 230 227 226 225 224 223 222 222 221 224 229 236 243 251 256 261 267 272 281 290 299 306 309 310 310 305 301 300 296 290 289 286 277 274 277 280 278 275
246 244 241 240 237 233 233 229 229 227 225 224 225 225 226 230 236 243 250 255 259 262 266 274 284 292 296 304 311 312 310 305 298 297 296 294 291 286 278 275 274 277 284
256 247 242 240 239 236 235 232 231 229 228 227 228 228 228 232 235 239 245 251 255 259 267 278 289 297 302 307 312 313 311 308 303 297 295 286 284 284 280 275 273 280 282
253 250 247 240 238 236 234 233 231 230 229 227 228 229 230 232 235 238 242 245 250 256 265 277 286 292 299 303 310 314 314 313 308 302 295 293 317 308 288 262 275 290 285
258 253 248 241 238 235 233 231 231 231 231 229 229 230 231 232 234 235 238 243 248 255 265 276 284 291 295 300 307 314 316 311 301 293 238 121 320 307 309 294 304 310 303
260 255 246 243 236 231 230 228 229 230 231 230 229 230 231 232 233 233 237 238 242 249 259 271 282 289 293 300 307 314 320 307 305 269 197 317 314 330 304 301 307 308 319
256 250 243 236 233 226 224 223 224 228 228 228 228 229 230 231 232 234 235 238 241 247 257 269 280 287 292 301 308 309 319 314 271 118 319 330 316 321 326 322 314 306 302
254 250 241 234 233 228 225 227 228 230 231 232 230 231 231 232 233 233 234 235 237 243 254 267 279 285 289 301 319 328 328 314 227 313 295 319 349 318 306 302 307 304 300
255 246 243 233 231 227 225 224 227 229 231 230 228 230 230 230 232 233 234 234 235 238 247 261 279 285 289 300 315 324 327 301 317 285 313 319 321 315 314 310 311 312 310
254 245 238 232 229 226 226 227 227 229 227 230 230 232 231 230 232 233 234 234 236 238 243 251 265 278 282 290 303 310 307 305 316 315 309 314 317 316 319 318 320 319 322
245 243 236 228 227 227 228 231 230 231 233 236 235 233 232 233 233 234 235 234 234 236 238 245 258 272 275 283 293 301 302 304 304 295 308 316 316 319 322 324 324 327 324
237 237 231 225 225 228 230 231 231 232 233 233 234 233 233 233 233 233 234 234 234 235 238 244 252 264 269 273 283 294 300 300 301 295 290 302 311 314 319 319 321 323 323
Wind_Speed_850mb
42 33 31 27 28 29 29 25 21 16 13 12 11 9 8 6 3 3 4 4 5 9 7 5 2 0 3 4 4 5 6 7 8 8 8 8 7 9 9 10 11 9 9
32 36 32 28 28 27 26 26 22 20 17 14 12 13 13 10 8 6 5 3 3 5 5 5 6 3 3 5 7 7 8 9 8 7 5 3 2 7 9 9 11 9 7
34 35 33 28 27 28 27 24 23 23 21 20 19 16 12 10 11 10 10 9 11 9 8 11 6 6 6 8 8 9 9 9 10 9 8 5 4 2 2 3 9 7 9
36 37 32 30 30 29 26 23 24 24 24 24 23 18 16 16 16 16 14 13 13 12 14 16 13 11 12 13 13 12 12 11 9 8 7 9 8 8 11 12 13 14 11
37 38 34 32 31 30 27 27 26 26 26 24 18 17 16 15 15 14 14 15 16 17 19 20 19 19 20 20 19 18 17 16 14 12 9 9 9 10 15 18 19 17 17
41 42 37 36 33 31 30 29 26 25 21 17 16 14 13 12 12 12 12 13 13 16 17 18 19 19 19 20 23 24 24 24 22 19 15 13 13 13 12 15 16 16 17
44 46 42 39 36 34 32 29 25 23 18 17 14 11 10 9 9 9 10 10 12 13 14 14 14 14 16 16 19 21 23 24 26 26 24 22 22 18 18 17 20 19 17
41 44 44 42 39 38 36 31 26 22 20 17 14 10 6 3 3 3 3 3 3 3 4 5 6 8 9 11 13 14 15 15 19 24 26 29 28 25 23 16 20 22 22
45 47 45 44 42 41 38 33 30 27 25 23 20 16 10 6 5 3 2 1 2 3 5 7 9 10 12 12 12 14 14 14 14 13 18 25 28 30 29 28 24 19 21
47 50 50 48 47 47 44 38 32 29 28 27 22 17 13 10 8 7 5 3 3 5 8 11 13 15 17 17 18 18 17 16 15 13 14 18 23 29 31 33 35 31 28
52 55 56 54 54 53 49 42 37 34 32 29 24 18 14 11 11 10 8 7 8 8 10 11 15 16 20 22 22 22 22 21 20 19 18 18 19 23 30 36 38 42 45
56 58 61 61 59 59 55 49 44 43 39 35 30 24 20 16 13 13 12 13 12 12 14 15 18 21 22 24 27 27 27 26 24 22 23 23 24 24 25 26 29 31 35
55 60 61 63 64 63 59 53 51 48 46 42 37 31 25 20 19 18 18 19 19 18 16 18 22 24 27 28 30 30 29 27 25 22 24 24 23 24 25 27 27 26 24
63 63 62 64 67 67 62 59 55 54 51 47 41 36 29 26 24 23 24 24 23 23 24 23 24 26 29 32 32 32 31 29 26 24 24 26 26 25 27 28 30 30 30
70 68 67 68 70 69 69 65 63 60 56 49 45 39 37 33 30 30 28 27 27 25 25 24 26 29 32 32 33 30 27 27 26 26 24 26 27 26 27 27 30 31 32
75 74 71 73 73 71 73 70 69 64 58 55 49 44 41 40 38 35 33 32 29 26 26 27 29 31 34 34 33 32 29 25 25 26 25 23 26 28 28 25 28 29 30
75 77 78 77 77 76 75 74 72 68 66 61 56 52 49 47 45 42 36 34 32 31 30 31 32 35 36 36 35 32 29 28 26 24 19 16 17 19 24 24 22 20 21
78 78 77 80 81 81 79 76 76 74 71 65 62 58 55 53 50 46 41 38 35 33 32 33 33 36 36 37 35 32 31 28 25 20 19 11 2 3 6 10 9 16 19
77 78 80 82 84 83 80 75 75 75 75 69 65 63 60 58 55 51 45 41 38 37 38 36 36 37 37 37 36 34 32 28 21 19 8 2 16 18 15 14 15 20 17
79 85 83 84 83 84 79 75 75 76 76 73 72 69 66 62 59 55 50 46 42 40 37 35 35 36 37 39 39 40 38 28 20 7 9 28 28 19 19 20 25 21 21
76 90 92 91 86 87 88 85 84 84 83 82 78 73 70 66 62 58 56 51 45 41 36 32 32 33 35 38 42 41 35 20 8 5 37 15 25 26 13 20 26 33 38
65 78 91 95 91 88 90 87 86 84 84 82 78 77 74 70 66 63 61 56 49 44 37 32 31 34 35 34 34 40 23 22 15 44 10 27 9 26 28 33 34 40 45
68 74 85 93 92 88 87 88 89 85 83 84 85 85 82 75 71 68 65 60 54 49 40 33 31 34 33 31 29 21 12 11 54 17 39 27 47 42 39 49 46 43 41
63 67 80 91 89 86 87 88 94 92 91 93 93 90 85 79 76 73 69 65 59 52 43 35 32 36 36 32 30 28 26 29 23 35 44 58 49 57 54 53 48 55 51
57 65 73 85 85 86 86 85 89 92 89 88 89 88 85 82 80 76 72 68 64 58 50 41 34 36 38 35 33 31 31 31 30 27 66 76 68 63 63 66 68 60 56
57 64 73 81 83 83 83 88 90 90 90 93 93 88 86 86 84 80 76 73 68 63 54 44 37 36 38 35 34 35 36 34 33 32 44 61 70 75 72 73 72 70 65
Wind_Direction_850mb
197 206 205 195 197 199 199 204 205 212 214 214 215 225 244 270 278 297 323 350 54 62 46 50 90 211 331 325 338 342 352 6 20 28 30 39 23 18 27 15 20 24 33
198 198 203 198 198 194 194 204 208 206 204 212 224 230 227 228 237 210 204 199 211 133 161 234 270 296 316 326 312 315 318 324 345 7 21 48 22 46 36 346 4 358 3
191 197 198 196 196 198 199 196 201 204 205 208 211 211 221 220 220 235 232 223 235 243 252 271 290 294 282 286 291 301 310 315 321 329 333 321 312 68 109 331 345 338 320
196 194 195 194 197 199 201 201 203 208 211 213 214 211 222 237 243 238 237 240 236 240 248 257 265 267 264 261 265 267 269 273 275 280 283 288 305 310 300 282 299 302 308
195 195 195 197 199 199 199 204 205 208 214 218 228 220 225 230 235 242 242 240 245 252 260 268 267 262 262 263 263 262 263 264 265 265 265 272 276 268 280 297 305 311 306
194 194 195 198 200 201 205 206 201 205 210 209 209 212 222 229 236 245 252 261 266 267 268 271 272 271 266 265 268 268 266 263 261 259 258 255 257 259 277 293 294 305 301
198 196 196 199 201 205 204 200 202 208 206 212 215 214 217 221 232 238 245 253 255 260 268 274 281 283 283 279 269 267 266 269 267 261 257 250 246 249 260 282 293 291 288
210 204 203 203 204 204 202 202 204 206 204 198 195 190 190 198 222 228 217 206 209 230 256 287 298 306 306 309 311 307 302 288 270 264 257 252 252 249 252 269 280 289 284
210 213 213 211 210 206 205 204 203 201 199 192 182 184 193 212 234 236 231 244 323 340 334 325 323 322 319 320 318 315 313 309 298 282 262 252 246 243 241 242 241 255 275
216 217 218 217 214 213 213 212 210 207 202 194 191 192 200 207 217 221 225 234 283 313 318 318 319 318 316 314 310 303 299 301 297 289 275 267 257 247 241 240 245 252 259
220 221 221 220 217 215 217 216 212 211 208 204 201 204 208 208 207 212 226 239 269 288 296 311 317 319 317 317 315 310 305 300 294 292 287 279 269 259 256 250 248 257 266
225 224 223 223 221 220 219 218 216 214 211 209 208 209 209 222 233 244 250 260 264 268 288 302 304 308 314 314 310 305 299 295 290 283 279 274 273 270 266 261 261 259 260
236 231 230 227 225 224 224 220 219 217 214 212 212 216 221 227 236 247 258 264 270 280 283 287 295 304 307 309 309 306 302 298 296 293 286 280 276 276 276 275 274 274 269
242 239 236 232 229 227 224 225 224 221 218 217 217 220 225 233 240 244 248 255 261 266 276 286 293 298 304 311 310 308 306 302 298 290 286 285 282 282 279 277 277 275 274
243 242 240 235 233 230 227 226 225 224 223 222 222 221 224 229 236 243 251 256 261 267 272 281 290 299 306 309 310 310 305 301 300 296 290 289 286 277 274 277 280 278 275
246 244 241 240 237 233 233 229 229 227 225 224 225 225 226 230 236 243 250 255 259 262 266 274 284 292 296 304 311 312 310 305 298 297 296 294 291 286 278 275 274 277 284
256 247 242 240 239 236 235 232 231 229 228 227 228 228 228 232 235 239 245 251 255 259 267 278 289 297 302 307 312 313 311 308 303 297 295 286 284 284 280 275 273 280 282
253 250 247 240 238 236 234 233 231 230 229 227 228 229 230 232 235 238 242 245 250 256 265 277 286 292 299 303 310 314 314 313 308 302 295 293 317 308 288 262 275 290 285
258 253 248 241 238 235 233 231 231 231 231 229 229 230 231 232 234 235 238 243 248 255 265 276 284 291 295 300 307 314 316 311 301 293 238 121 320 307 309 294 304 310 303
260 255 246 243 236 231 230 228 229 230 231 230 229 230 231 232 233 233 237 238 242 249 259 271 282 289 293 300 307 314 320 307 305 269 197 317 314 330 304 301 307 308 319
256 250 243 236 233 226 224 223 224 228 228 228 228 229 230 231 232 234 235 238 241 247 257 269 280 287 292 301 308 309 319 314 271 118 319 330 316 321 326 322 314 306 302
254 250 241 234 233 228 225 227 228 230 231 232 230 231 231 232 233 233 234 235 237 243 254 267 279 285 289 301 319 328 328 314 227 313 295 319 349 318 306 302 307 304 300
255 246 243 233 231 227 225 224 227 229 231 230 228 230 230 230 232 233 234 234 235 238 247 261 279 285 289 300 315 324 327 301 317 285 313 319 321 315 314 310 311 312 310
254 245 238 232 229 226 226 227 227 229 227 230 230 232 231 230 232 233 234 234 236 238 243 251 265 278 282 290 303 310 307 305 316 315 309 314 317 316 319 318 320 319 322
245 243 236 228 227 227 228 231 230 231 233 236 235 233 232 233 233 234 235 234 234 236 238 245 258 272 275 283 293 301 302 304 304 295 308 316 316 319 322 324 324 327 324
237 237 231 225 225 228 230 231 231 232 233 233 234 233 233 233 233 233 234 234 234 235 238 244 252 264 269 273 283 294 300 300 301 295 290 302 311 314 319 319 321 323 323